This is the latest recevied weather packets stored in our database for station/object KB1FFS. If no packets are shown the sender has not sent any weather packets the latest 10 day(s).
| Time | Temp. | Humidity | Pressure | Rain* | Wind** | Luminosity | Snow |
|---|---|---|---|---|---|---|---|
| 1787793345 | 26.67° C | 80% | 1013.2 hPa | 0 mm | - | 0 W/m² | - |
| 1787793045 | 26.67° C | 81% | 1013.1 hPa | 0 mm | - | 1 W/m² | - |
| 1787792739 | 26.67° C | 83% | 1013.2 hPa | 0 mm | - | 1 W/m² | - |
| 1787792438 | 26.67° C | 82% | 1013.2 hPa | 0 mm | - | 4 W/m² | - |
| 1787792137 | 26.67° C | 82% | 1013.2 hPa | 0 mm | - | 5 W/m² | - |
| 1787791835 | 26.67° C | 80% | 1013.3 hPa | 0 mm | - | 7 W/m² | - |
| 1787791530 | 26.67° C | 79% | 1013.2 hPa | 0 mm | - | 9 W/m² | - |
| 1787791226 | 27.22° C | 77% | 1013.3 hPa | 0 mm | - | 9 W/m² | - |
| 1787790921 | 27.22° C | 77% | 1013.3 hPa | 0 mm | - | 9 W/m² | - |
| 1787790616 | 27.22° C | 74% | 1013 hPa | 0 mm | - | 13 W/m² | - |
| 1787790311 | 27.78° C | 73% | 1013.2 hPa | 0 mm | - | 20 W/m² | - |
| 1787790007 | 27.78° C | 73% | 1013.1 hPa | 0 mm | - | 34 W/m² | - |
| 1787789702 | 28.33° C | 73% | 1012.9 hPa | 0 mm | - | 53 W/m² | - |
| 1787789401 | 27.78° C | 70% | 1013.1 hPa | 0 mm | - | 102 W/m² | - |
| 1787789096 | 27.78° C | 71% | 1013.2 hPa | 0.51 mm | - | 103 W/m² | - |
| 1787788794 | 27.78° C | 69% | 1013.3 hPa | 1.27 mm | - | 118 W/m² | - |
| 1787788488 | 27.22° C | 81% | 1013.6 hPa | 0.51 mm | - | 85 W/m² | - |
| 1787788188 | 27.22° C | 81% | 1013.2 hPa | 0 mm | - | 66 W/m² | - |
| 1787787883 | 27.22° C | 82% | 1013.5 hPa | 0 mm | - | 122 W/m² | - |
| 1787787578 | 26.11° C | 85% | 1013.6 hPa | 0 mm | - | 208 W/m² | - |
| 1787787273 | 26.11° C | 85% | 1013.6 hPa | 0 mm | - | 208 W/m² | - |
| 1787786972 | 25.56° C | 86% | 1014.1 hPa | 0.51 mm | - | 237 W/m² | - |
| 1787786667 | 25° C | 87% | 1014.2 hPa | 1.27 mm | - | 219 W/m² | - |
| 1787786366 | 25° C | 87% | 1014.3 hPa | 2.29 mm | - | 61 W/m² | - |
| 1787786062 | 25° C | 85% | 1014.6 hPa | 8.38 mm | - | 44 W/m² | - |
* Rain latest hour (hover to see other rain measurements)
** Current wind speed in m/s (hover to see current wind gust speed)